www.pogodaiklimat.ru

Погода и климат >> Архив погоды >> Алжир >> Adrar


ПОГОДА в Adrar

  • Прогноз погоды в Adrar
  • Монитор погоды в Adrar
  • Климат города

АРХИВ ПОГОДЫ в Adrar

Время (UTC), дата Ветер
(напр.,м/с)
 
Видим.   Явления Облачность Т
(С)
Тd
(С)
f
(%)
Тe
(С)
Тes
(С)
Комфортность P
(гПа)
Po
(гПа)
Тmin
(С)
Tmax
(С)
R
(мм)
R24
(мм)
S
(см)
03 8.08 В 3 10 км 8/3 1500 м
[Cu med, cong Ac trans Ci sp]
+32.0 +7.6 22 +31 +31 жарко 1006.6 1007.0
06 8.08 В 3 10 км 8/3 1380 м
[Cu med, cong Ac trans Ci sp]
+31.0 +6.6 22 +30 +30 жарко 1008.1 1008.0 +30.8
09 8.08 Ю 4 10 км 9/3 1380 м
[Cu med, cong Ac trans Ci sp]
+35.0 +8.8 20 +33 +37 жарко 1009.9 1010.0
12 8.08 З 5 10 км 8/3 1500 м
[Cu med, cong Ac trans Ci sp]
+42.6 +8.6 13 +41 +46 опасность
перегрева
1008.8 1009.0
15 8.08 СЗ 5 10 км 8/4 1380 м
[Cu med, cong Ac trans Ci sp]
+43.0 +7.3 12 +41 +43 опасность
перегрева
1006.9 1007.0
18 8.08 СЗ 9 8000 м 9/4 1380 м
[Cu med, cong Ac trans Ci sp]
+40.2 +7.1 13 +38 +38 очень
жарко
1006.3 1006.0 +44.0
21 8.08 СЗ 5 8000 м 4/3 1500 м
[Cu med, cong Ac trans Ci sp]
+35.5 +5.9 16 +33 +33 жарко 1007.9 1008.0
00 9.08 С 4 8000 м 4/3 1500 м
[Cu med, cong Ac trans Ci sp]
+34.2 +7.3 19 +32 +32 жарко 1008.1 1008.0
03 9.08 С 6 8000 м 4/3 1500 м
[Cu med, cong Ac trans Ci sp]
+34.2 +7.3 19 +32 +32 жарко 1007.7 1008.0
06 9.08 С 4 10 км 5/3 1500 м
[Cu med, cong Ac trans Ci sp]
+32.5 +7.7 21 +31 +31 жарко 1008.5 1009.0 +32.3
09 9.08 СВ 5 7000 м 8/3 1500 м
[Cu med, cong Ac trans Ci sp]
+38.8 +9.1 17 +37 +40 очень
жарко
1008.6 1009.0
12 9.08 ЮВ 3 3000 м пыль 9/4 1380 м
[Cu med, cong Ac trans Ci sp]
+41.7 +10.2 15 +40 +47 очень
жарко
1008.4 1008.0
15 9.08 Ю 4 3000 м пыль 9/4 1200 м
[Cu med, cong Ac trans]
+44.5 +9.7 13 +43 +46 опасность
перегрева
1005.9 1006.0
18 9.08 СЗ 5 5000 м в посл. час гроза {дождь} 9/4 1000 м
[Cu med, cong Ac trans]
+38.0 +11.0 20 +37 +37 очень
жарко
1006.1 1006.0 +45.0 1
21 9.08 ЮВ 3 1000 м гроза без осадков 9/4 1000 м
[Cb cap Ac trans Ci sp]
+36.4 +14.0 26 +37 +37 очень
жарко
1008.7 1009.0
00 10.08 В 4 5000 м {гроза} 8/3 1380 м
[Cu med, cong Ac trans Ci sp]
+35.0 +12.0 25 +35 +35 очень
жарко
1008.5 1009.0
03 10.08 В 6 8000 м 6/3 1380 м
[Cu med, cong Ac trans]
+34.5 +12.9 27 +35 +35 очень
жарко
1008.0 1008.0
06 10.08 ЮЗ 5 3000 м гроза без осадков 10/5 900 м
[Cb cap Ac trans]
+32.4 +12.2 29 +33 +33 жарко 1010.9 1011.0 +32.0 1
09 10.08 СЗ 4 5000 м {гроза} 8/4 1380 м
[Cu med, cong Ac trans]
+33.8 +18.1 39 +38 +41 очень
душно
1013.3 1013.0
12 10.08 СВ 5 6000 м {гроза} 9/1 1380 м
[Cu med, cong Ac trans Ci sp]
+39.3 +16.3 26 +41 +47 опасность
перегрева
1012.4 1012.0
15 10.08 СЗ 5 8000 м 10/4 1200 м
[Cu med, cong Ac trans Ci sp]
+39.4 +15.3 24 +40 +42 очень
душно
1010.8 1011.0
18 10.08 СЗ 5 8000 м 10/8 1200 м
[Cu med, cong Ac trans]
+37.4 +14.9 26 +38 +38 душно 1010.6 1011.0 +40.2
21 10.08 С 5 8000 м 5/4 1380 м
[Cu med, cong Ac trans]
+34.2 +14.0 30 +35 +35 очень
жарко
1011.8 1012.0
00 11.08 С 8 7000 м 6/4 1380 м
[Cu med, cong Ac trans]
+33.3 +14.2 32 +35 +35 душно 1011.1 1011.0
03 11.08 С 6 7000 м 8/4 1380 м
[Cu med, cong Ac trans]
+32.0 +14.8 35 +34 +34 душно 1010.6 1011.0
06 11.08 С 8 8000 м 8/5 1380 м
[Cu med, cong Ac trans]
+32.0 +13.7 33 +33 +33 жарко 1010.6 1011.0 +31.0
09 11.08 С 13 1000 м пыльный позёмок 6/4 1380 м
[Cu med, cong Ac trans]
+37.0 +14.3 26 +38 +38 душно 1011.1 1011.0
12 11.08 В 4 9000 м 6/3 1380 м
[Cu med, cong Ac trans]
+41.4 +13.4 19 +41 +49 опасность
перегрева
1010.2 1010.0
15 11.08 СЗ 3 9000 м 9/5 1380 м
[Cu med, cong Ac trans]
+43.0 +11.5 16 +42 +45 опасность
перегрева
1008.1 1008.0
18 11.08 СЗ 10 8000 м пыльный позёмок 6/3 1500 м
[Cu med, cong Ac trans Ci sp]
+41.0 +11.6 18 +40 +40 очень
жарко
1007.3 1007.0 +44.0
21 11.08 С 6 8000 м 5/1 1380 м
[Cu med, cong Ac trans Ci sp]
+38.0 +13.0 23 +38 +38 очень
жарко
1009.1 1009.0
00 12.08 В 8 9000 м 5/0
[Ac trans Ci sp]
+35.2 +13.6 27 +36 +36 очень
жарко
1009.1 1009.0
03 12.08 В 7 8000 м 3/0
[Ci sp]
+33.5 +12.5 28 +34 +34 очень
жарко
1007.4 1007.0
06 12.08 ЮВ 8 5000 м 4/0
[Ac trans Ci sp]
+32.5 +12.4 29 +33 +33 жарко 1008.5 1009.0 +32.2
09 12.08 ЮВ 9 8000 м пыльный позёмок 4/0
[Ci sp]
+38.5 +14.1 24 +39 +40 душно 1009.3 1009.0
12 12.08 Ю 3 7000 м 3/0
[Ci sp]
+42.7 +15.9 21 +44 +60 опасность
перегрева
1009.1 1009.0
15 12.08 СЗ 8 8000 м 4/3 1500 м
[Cu med, cong Ci sp]
+44.3 +14.8 18 +45 +47 опасность
перегрева
1006.7 1007.0
18 12.08 СЗ 3 9000 м 5/3 1500 м
[Cu med, cong Ac trans Ci sp]
+43.0 +12.7 17 +43 +43 опасность
перегрева
1005.9 1006.0 +44.6
21 12.08 СВ 7 8000 м 4/0
[Ac trans Ci sp]
+36.5 +15.6 29 +38 +38 очень
душно
1008.9 1009.0
00 13.08 В 5 8000 м 3/0
[Ac trans Ci sp]
+33.0 +15.3 35 +35 +35 душно 1010.2 1010.0
03 13.08 ЮВ 9 3000 м пыльный позёмок 5/3 1380 м
[Cu med, cong Ac trans Ci sp]
+29.8 +17.8 49 +34 +34 очень
душно
1011.2 1011.0
06 13.08 СЗ 3 2000 м пыль 8/3 1380 м
[Cu med, cong Ac trans Ci sp]
+29.5 +18.0 50 +34 +34 очень
душно
1012.1 1012.0 +29.2
09 13.08 С 5 7000 м 8/3 1380 м
[Cu med, cong Ac trans Ci sp]
+34.4 +18.9 40 +39 +42 очень
душно
1010.9 1011.0
12 13.08 СЗ 7 7000 м 8/3 1380 м
[Cu med, cong Ac trans Ci sp]
+38.0 +19.5 34 +43 +45 опасность
перегрева
1011.3 1011.0
15 13.08 СЗ 6 7000 м 8/3 1380 м
[Cu med, cong Ac trans Ci sp]
+39.8 +17.7 28 +43 +45 опасность
перегрева
1009.6 1010.0
18 13.08 СВ 6 9000 м 5/0
[Ac trans Ci sp]
+38.0 +17.5 30 +41 +41 опасность
перегрева
1008.7 1009.0 +40.0
21 13.08 СВ 4 10 км 3/0
[Ci sp]
+35.4 +16.3 32 +38 +38 очень
душно
1009.8 1010.0
00 14.08 штиль 0 10 км 3/0
[Ci sp]
+34.2 +17.0 36 +37 +37 очень
душно
1010.0 1010.0
03 14.08 СЗ 2 10 км 3/0
[Ci sp]
+32.4 +16.2 38 +35 +35 душно 1009.6 1010.0
06 14.08 СВ 3 10 км 4/0
[Ci sp]
+29.6 +15.4 42 +32 +32 душно 1010.5 1011.0 +28.8
09 14.08 В 7 10 км 5/0
[Ac trans Ci sp]
+36.4 +17.7 33 +40 +42 очень
душно
1011.1 1011.0
12 14.08 СВ 5 10 км 4/1 1380 м
[Cu med, cong Ac trans]
+40.7 +16.7 25 +43 +51 опасность
перегрева
1010.2 1010.0
15 14.08 С 5 10 км 5/4 1380 м
[Cu med, cong Ac trans]
+41.8 +16.0 22 +43 +46 опасность
перегрева
1008.5 1009.0
18 14.08 С 6 10 км 3/3 1300 м
[Cu med, cong]
+40.5 +14.3 21 +41 +41 опасность
перегрева
1007.9 1008.0 +42.2
21 14.08 СВ 7 10 км 3/3 1380 м
[Cu med, cong]
+37.4 +9.4 18 +36 +36 очень
жарко
1009.3 1009.0
00 15.08 СВ 6 10 км 3/3 1380 м
[Cu med, cong]
+34.4 +8.3 20 +33 +33 жарко 1010.0 1010.0

 

Местоположение метеостанции Adrar (Алжир): широта 27.88 долгота -0.18 высота над уровнем моря 283 м.

В архиве по умолчанию представлена погода в Adrar за последнюю неделю. Архивные данные за месяц целиком и за предыдущие месяцы, начиная с января 2011 года, Вы можете получить, выбрав интересующий диапазон дат из раскрывающегося списка и нажав кнопку "Ввод!".


*Определитесь, кто Вы:
робот инопланетянин человек

Внимание! Время в таблицах - всемирное. Для получения местного времени необходимо прибавить поправку, которая в Adrar равна 1 ч.

Смотрите также архив погоды в соседних городах и на ближайших метеорологических станциях:

Погода в Timimoun (Алжир) (159 км)
Погода в In-Salah (Алжир) (274 км)
Погода в Beni Abbes (Алжир) (316 км)
Погода в El-Golea (Алжир) (421 км)
Погода в Bechar (Алжир) (450 км)
Погода в Arak (Алжир) (490 км)
Погода в Abankor (Алжир) (520 км)
Погода в Ain Sefra (Алжир) (545 км)
Погода в In Ziza (Алжир) (561 км)
Погода в Moulay Lachen (Алжир) (594 км)

Пояснения к столбцам:

Ветер - указаны скорость ветра в м/с - средняя за 10 мин, порывы в срок и между сроками (в фигурных скобках) и направление, откуда дует ветер: С - северный, СВ - северо-восточный, В - восточный, ЮВ - юго-восточный, Ю - южный, ЮЗ - юго-западный, З - западный, СЗ - северо-западный.
Видимость - горизонтальная дальность видимости в метрах или километрах. При видимости от 1 до 10 км при отсутствии осадков обычно наблюдается дымка, при ухудшении видимости до 1 км и менее - туман. В сухую погоду видимость может ухудшаться дымом, пылью или мглою.
Явления - указаны атмосферные явления, наблюдавшиеся в срок или в последний час перед сроком; фигурными скобками обозначены явления, наблюдавшиеся между сроками (за 1-3 часа до срока); квадратными скобками обозначены град или гололедные отложения с указанием их диаметра в мм.
Облачность - указаны через наклонную черту общая и нижняя облачность в баллах и высота нижней границы облаков в метрах; квадратными скобками обозначены формы облаков: Ci - перистые, Cs - перисто-слоистые, Cc - перисто-кучевые, Ac - высококучевые, As - высокослоистые, Sc - слоисто-кучевые, Ns - слоисто-дождевые, Cu - кучевые, Cb - кучево-дождевые. Подробнее классификацию облаков см. в Атласе облаков (PDF).
T - Температура воздуха - температура, измеренная на высоте 2 м над землей.
Td - Температура точки росы - температура, при понижении до которой содержащийся в воздухе водяной пар достигнет насыщения.
f - Относительная влажность воздуха - влажноcть воздуха, измеренная на высоте 2 м над землей.
Te - Эффективная температура - температура, которую ощущает одетый по сезону человек в тени. Характеристика душности погоды. При расчете учитывается влияние влажности воздуха и скорости ветра на теплоощущения человека.
Tes - Эффективная температура на солнце - температура, которую ощущает человек, с поправкой на солнечный нагрев. Характеристика знойности погоды. Зависит от высоты солнца над горизонтом, облачности и скорости ветра. Ночью, в пасмурную погоду, а также при ветре 12 м/с и более поправка равна нулю.
P - Атмосферное давление - приведенное к уровню моря атмосферное давление.
Po - Атмосферное давление - измеренное на уровне метеостанции атмосферное давление.
Tmin - Минимальная температура - минимум температуры воздуха на высоте 2 м над землей.
Tmax - Максимальная температура - максимум температуры воздуха на высоте 2 м над землей.
R - Количество осадков - Количество выпавших осадков за период времени, мм. При наведении курсора мыши на число - период времени, за который выпало указанное количество осадков.
R24 - Количество осадков - Количество выпавших осадков за 24 часа, мм.
S - Снежный покров - Высота снежного покрова, см. При наведении курсора мыши на число - состояние снежного покрова и степень покрытия местности в баллах.